DateTimeUTC,F1_A11,F1_S11,BsB_S11,BsG_S11,BsR_S11,BbsB_S11,BbsG_S11,BbsR_S11,BaB_A11,BaG_A11,BaR_A11,Tu_S11,T_S11,Uu_S11,U_S11,P_S11,T1_A11
2021-05-29T20:00:00Z,00000200,20000000,,,,,,,0000.01,-000.16,-000.46,18.6,25.2,05.7,03.8,0666.7,31.0
2021-05-29T20:01:00Z,00000200,20000000,,,,,,,-000.02,-000.24,0000.08,18.6,25.2,05.5,03.7,0666.7,31.1
2021-05-29T20:02:00Z,00000200,20000000,,,,,,,-000.03,0000.18,0000.10,18.6,25.2,05.5,03.7,0666.7,31.1
2021-05-29T20:03:00Z,00000200,60000000,,,,,,,0000.63,0000.46,0000.33,18.6,25.2,05.5,03.7,0666.7,31.0
2021-05-29T20:04:00Z,00000200,40000000,0001.46,0001.30,0001.04,0000.33,0000.25,0000.41,0000.69,0000.57,0000.74,18.7,25.0,05.6,03.8,0667.6,31.1
2021-05-29T20:05:00Z,00000200,00000000,0001.25,0001.40,0000.75,0000.07,0000.29,-000.13,0000.23,0000.41,0000.11,18.7,25.0,05.7,03.9,0667.7,31.0
2021-05-29T20:06:00Z,00000200,00000000,0000.85,0000.81,0001.02,0000.11,0000.36,0000.34,0000.98,0000.44,0000.47,18.7,25.0,05.7,03.9,0667.7,31.0
2021-05-29T20:07:00Z,00000200,00000000,0001.29,0001.38,0000.86,0000.05,0000.39,0000.11,0000.29,0000.56,0000.12,18.7,25.0,05.8,04.0,0667.7,31.0
2021-05-29T20:08:00Z,00000200,00000000,0001.64,0001.31,0000.85,0000.22,0000.09,0000.27,0000.40,0000.12,0000.54,18.7,24.9,05.9,04.0,0667.7,31.0
2021-05-29T20:09:00Z,00000200,00000000,0001.93,0001.61,0000.66,0000.10,0000.01,0000.30,0000.82,0000.83,0000.32,18.7,24.9,05.8,04.0,0667.7,31.0
2021-05-29T20:10:00Z,00000200,00000000,0001.49,0001.31,0000.93,0000.26,0000.16,0000.11,0000.75,0000.95,0000.81,18.7,24.9,05.8,04.0,0667.7,31.0
2021-05-29T20:11:00Z,00000200,00000000,0001.79,0001.40,0000.68,0000.32,0000.17,-000.05,0000.59,0000.23,0000.28,18.7,24.9,05.8,03.9,0667.6,31.0
2021-05-29T20:12:00Z,00000200,00000000,0001.56,0001.18,0000.83,0000.37,0000.45,0000.07,0000.33,0000.95,0000.33,18.8,24.9,05.8,04.0,0667.6,31.0
2021-05-29T20:13:00Z,00000200,00000000,0001.75,0001.46,0000.80,0000.21,-000.07,0000.27,0000.89,0000.43,0000.06,18.8,24.9,05.9,04.0,0667.6,31.0
2021-05-29T20:14:00Z,00000200,00000000,0001.28,0001.30,0000.69,-000.25,0000.25,0000.38,0000.45,0000.44,0000.53,18.8,25.0,05.9,04.0,0667.6,31.0
2021-05-29T20:15:00Z,00000200,00000000,0001.31,0001.11,0000.40,0000.53,0000.27,0000.20,0000.71,0000.56,0000.66,18.8,24.9,05.9,04.0,0667.6,31.0
2021-05-29T20:16:00Z,00000200,00000000,0001.83,0001.66,0000.98,0000.49,0000.21,0000.18,0000.48,0000.33,0000.53,18.8,24.9,05.8,03.9,0667.6,31.0
2021-05-29T20:17:00Z,00000200,00000000,0001.16,0001.34,0000.72,0001.17,0000.13,0000.15,0000.45,0000.50,0000.26,18.8,24.9,05.8,04.0,0667.6,31.0
2021-05-29T20:18:00Z,00000200,00000000,0000.69,0001.41,0000.43,0000.51,0000.23,0000.30,0000.75,0000.50,0000.27,18.7,24.9,05.8,04.0,0667.6,31.0
2021-05-29T20:19:00Z,00000200,00000000,0000.81,0001.10,0000.53,-000.02,0000.16,0000.23,0000.60,0000.34,0000.31,18.8,24.9,05.7,03.9,0667.5,31.0
2021-05-29T20:20:00Z,00000200,00000000,0001.33,0001.53,0000.56,0000.33,0000.15,-000.15,0000.38,0000.41,0000.43,18.8,24.9,05.7,03.9,0667.5,31.0
2021-05-29T20:21:00Z,00000200,00000000,0001.80,0001.30,0000.94,0000.34,0000.07,0000.18,0000.88,0000.79,0000.40,18.8,24.9,05.6,03.9,0667.5,31.0
2021-05-29T20:22:00Z,00000200,00000000,0000.74,0001.22,0000.67,0000.30,0000.33,0000.04,0000.13,0000.10,-000.01,18.8,24.9,05.7,03.9,0667.5,31.0
2021-05-29T20:23:00Z,00000200,00000000,0001.35,0001.44,0000.90,0000.44,0000.02,0000.34,0000.73,0000.93,0000.46,18.8,24.9,05.7,03.9,0667.5,31.0
2021-05-29T20:24:00Z,00000200,00000000,0002.28,0001.19,0000.83,0000.20,0000.46,-000.03,0000.60,0000.45,0000.90,18.8,24.9,05.6,03.8,0667.5,31.0
2021-05-29T20:25:00Z,00000200,00000000,0001.15,0001.11,0000.77,0000.76,0000.29,0000.55,0000.35,0000.50,-000.04,18.8,24.9,05.6,03.9,0667.4,31.0
2021-05-29T20:26:00Z,00000200,00000000,0001.45,0001.36,0000.93,0000.56,0000.19,0000.37,0000.76,0000.83,0000.39,18.8,24.9,05.7,03.9,0667.5,31.0
2021-05-29T20:27:00Z,00000200,00000000,0001.24,0001.25,0000.86,0000.67,0000.02,0000.05,0000.62,0000.23,0000.44,18.8,24.9,05.6,03.8,0667.5,31.0
2021-05-29T20:28:00Z,00000200,00000000,0001.48,0001.35,0000.73,0000.67,0000.24,0000.27,0000.58,0000.19,0000.35,18.8,24.9,05.6,03.8,0667.4,31.0
2021-05-29T20:29:00Z,00000200,00000000,0000.80,0000.98,0000.45,0000.40,0000.19,-000.14,0000.55,0000.86,0000.56,18.8,24.9,05.6,03.9,0667.4,31.0
2021-05-29T20:30:00Z,00000200,00000000,0001.77,0001.21,0000.78,0000.38,0000.50,0000.37,0000.70,0000.54,0000.20,18.8,24.9,05.7,03.9,0667.4,31.0
2021-05-29T20:31:00Z,00000200,00000000,0001.97,0000.99,0000.75,0000.66,0000.24,0000.23,0000.23,0000.57,0000.39,18.8,24.9,05.6,03.9,0667.4,31.0
2021-05-29T20:32:00Z,00000200,00000000,0001.12,0001.08,0000.60,0000.75,0000.21,0000.18,0000.81,0000.52,0000.53,18.8,24.9,05.6,03.8,0667.4,31.0
2021-05-29T20:33:00Z,00000200,00000000,0000.94,0001.38,0000.94,0000.03,0000.09,0000.03,0000.72,0000.65,0000.35,18.8,24.9,05.6,03.9,0667.4,31.0
2021-05-29T20:34:00Z,00000200,00000000,0001.96,0001.18,0000.91,0000.85,0000.08,0000.07,0000.07,0000.06,0000.18,18.8,24.9,05.6,03.8,0667.4,31.0
2021-05-29T20:35:00Z,00000200,00000000,0000.29,0001.16,0000.67,0000.90,0000.08,0000.13,0000.80,0000.64,0000.31,18.7,24.9,05.4,03.7,0667.4,31.0
2021-05-29T20:36:00Z,00000200,00000000,0001.15,0001.12,0000.65,0000.39,0000.05,0000.28,0000.42,0000.38,0000.59,18.8,24.9,05.6,03.8,0667.4,31.0
2021-05-29T20:37:00Z,00000200,00000000,0001.45,0001.30,0000.55,0000.20,0000.37,-000.20,0000.67,0000.67,0000.61,18.7,24.9,05.6,03.8,0667.4,31.0
2021-05-29T20:38:00Z,00000200,00000000,0001.70,0000.85,0000.96,0000.27,0000.32,-000.01,0000.64,0000.44,0000.33,18.7,24.9,05.5,03.8,0667.4,31.0
2021-05-29T20:39:00Z,00000200,00000000,0002.04,0001.51,0000.69,0000.25,0000.30,0000.04,0000.67,0000.46,0000.29,18.8,24.9,05.5,03.8,0667.3,31.0
2021-05-29T20:40:00Z,00000200,00000000,0001.35,0001.35,0000.57,0000.49,0000.12,-000.05,0000.43,0000.52,0000.24,18.8,24.9,05.5,03.8,0667.3,31.0
2021-05-29T20:41:00Z,00000200,00000000,0001.51,0001.30,0000.83,0000.57,0000.17,0000.17,0000.76,0000.62,0000.47,18.7,24.9,05.4,03.8,0667.3,31.0
2021-05-29T20:42:00Z,00000200,00000000,0001.58,0001.27,0000.69,0000.28,0000.20,0000.02,0000.32,0000.45,0000.30,18.8,24.9,05.4,03.7,0667.3,31.1
2021-05-29T20:43:00Z,00000200,00000000,0001.44,0001.36,0000.92,0000.63,0000.34,0000.28,0000.31,0000.34,0000.34,18.7,24.9,05.4,03.7,0667.3,31.0
2021-05-29T20:44:00Z,00000200,00000000,0001.82,0001.05,0000.48,0000.67,0000.28,-000.13,0000.50,0000.51,0000.41,18.7,24.9,05.4,03.7,0667.3,31.0
2021-05-29T20:45:00Z,00000200,00000000,0000.96,0001.57,0000.63,0000.33,0000.03,-000.08,0000.59,0000.61,0000.43,18.7,24.9,05.3,03.7,0667.3,31.0
2021-05-29T20:46:00Z,00000200,00000000,0001.66,0001.31,0000.73,0000.66,0000.24,0000.24,0000.80,0000.33,0000.22,18.7,24.9,05.3,03.7,0667.2,31.0
2021-05-29T20:47:00Z,00000200,00000000,0001.75,0001.48,0000.76,0000.41,-000.09,0000.10,0000.53,0000.64,0000.10,18.7,24.9,05.3,03.7,0667.2,31.0
2021-05-29T20:48:00Z,00000200,00000000,0000.65,0001.08,0000.87,0000.17,0000.22,-000.19,0000.60,0000.29,0000.34,18.7,24.9,05.3,03.6,0667.3,31.0
2021-05-29T20:49:00Z,00000200,00000000,0000.65,0001.02,0000.83,0000.21,0000.20,0000.10,0000.65,0000.80,0000.66,18.7,24.9,05.2,03.6,0667.3,31.0
2021-05-29T20:50:00Z,00000200,00000000,0000.69,0000.76,0000.62,0000.39,0000.14,0000.31,0000.50,0000.58,0000.38,18.7,24.9,05.3,03.6,0667.2,31.0
2021-05-29T20:51:00Z,00000200,00000000,0001.70,0001.38,0001.01,0000.16,0000.16,0000.29,0000.40,0000.59,0000.18,18.7,24.9,05.2,03.5,0667.2,31.0
2021-05-29T20:52:00Z,00000200,00000000,0001.08,0001.13,0000.68,0000.41,0000.28,0000.27,0000.58,0000.26,0000.51,18.7,24.9,05.2,03.6,0667.2,31.0
2021-05-29T20:53:00Z,00000200,00000000,0001.31,0001.34,0000.81,0000.41,0000.21,0000.15,0001.17,0000.53,0000.68,18.7,24.9,05.1,03.5,0667.2,31.0
2021-05-29T20:54:00Z,00000200,00000000,0000.99,0001.30,0000.62,-000.08,0000.51,0000.15,0000.26,0000.43,0000.34,18.7,24.9,05.2,03.6,0667.2,31.0
2021-05-29T20:55:00Z,00000200,00000000,0001.21,0001.23,0000.79,0000.38,0000.17,0000.07,0000.37,0000.44,-000.04,18.7,24.9,05.2,03.6,0667.2,31.0
2021-05-29T20:56:00Z,00000200,00000000,0001.47,0001.11,0000.89,0000.67,0000.08,0000.41,0000.85,0000.60,0000.73,18.7,24.9,05.3,03.6,0667.2,31.0
2021-05-29T20:57:00Z,00000200,40000000,,,,,,,-000.08,-000.03,0000.03,18.7,24.9,05.1,03.5,0667.2,31.0
2021-05-29T20:58:00Z,00000200,60000000,,,,,,,-000.25,-000.06,-000.37,18.4,25.0,05.2,03.4,0666.2,31.0
2021-05-29T20:59:00Z,00000200,20000000,,,,,,,0000.07,0000.19,0000.30,18.4,25.1,05.0,03.3,0666.1,31.0
